Regional Weather Roundup
Issued by NWS

Home | Current Version | Previous Version | Text Only | Print | Product List | Glossary Off
Versions: 1 2 3 4 5 6 7 8 9 10 11 12 13 14 15 16 17 18 19 20 21 22 23 24 25 26 27 28 29 30 31 32 33 34 35 36 37 38 39 40 41 42 43 44 45 46 47 48 49 50

911
ASUS43 KTOP 261159
RWRKS

WEATHER ROUNDUP FOR KANSAS
NATIONAL WEATHER SERVICE GOODLAND KS
700 AM CDT WED APR 26 2017

NOTE:  "FAIR" INDICATES FEW OR NO CLOUDS BELOW 12,000 FEET WITH NO
SIGNIFICANT WEATHER AND/OR OBSTRUCTIONS TO VISIBILITY.

KSZ001>006-013>018-027>032-041>047-261300-
NORTHWEST KANSAS

CITY           SKY/WX    TMP DP  RH WIND       PRES   REMARKS
GOODLAND       CLOUDY    31  27  85 N13       29.81R WCI  21
6HR MIN TEMP:  30; 6HR MAX TEMP:  38; 6HR PCP: TRACE;

HAYS           CLOUDY    38  29  70 N15       29.77R WCI  29
HILL CITY      MOCLDY    36  27  69 NW16G24   29.79R WCI  26
6HR MIN TEMP:  36; 6HR MAX TEMP:  41;

RUSSELL        CLOUDY    38  30  73 NW16G25   29.75R WCI  29
6HR MIN TEMP:  38; 6HR MAX TEMP:  42;

$$

KSZ061>065-074>080-084>089-261300-
SOUTHWEST KANSAS

CITY           SKY/WX    TMP DP  RH WIND       PRES   REMARKS
DODGE CITY     CLOUDY    38  31  76 N17G24    29.75S WCI  28
6HR MIN TEMP:  38; 6HR MAX TEMP:  43; 6HR PCP: TRACE;

ELKHART          N/A     38  31  76 N13         N/A  WCI  30
GARDEN CITY    CLOUDY    37  29  72 N20       29.78S WCI  27
6HR MIN TEMP:  37; 6HR MAX TEMP:  45;

GREAT BEND     CLOUDY    39  32  76 N18G29    29.75R WCI  30
$$

KSZ066>073-081>083-090>101-261300-
SOUTHEAST KANSAS

CITY           SKY/WX    TMP DP  RH WIND       PRES   REMARKS
CHANUTE        CLOUDY    46  43  89 N17G25    29.58F
6HR MIN TEMP:  46; 6HR MAX TEMP:  53; 6HR PCP:  0.01;

COFFEYVILLE    CLOUDY    48  45  89 N18G28    29.57R
6HR MIN TEMP:  48; 6HR MAX TEMP:  57; 6HR PCP:  0.01;

HUTCHINSON     CLOUDY    41  34  76 N17G29    29.70R
6HR MIN TEMP:  41; 6HR MAX TEMP:  44;

MEDICINE LODGE   N/A     41  35  79 N14G31    29.69R
NEWTON         CLOUDY    41  36  82 N18G25    29.67S
PARSONS        CLOUDY    47  44  90 N18G29    29.58S
6HR MIN TEMP:  47; 6HR MAX TEMP:  56; 6HR PCP:  0.01;

WICHITA INTL   CLOUDY    43  37  79 N23G30    29.65F
6HR MIN TEMP:  43; 6HR MAX TEMP:  46; 6HR PCP: TRACE;

WICHITA JABRA  CLOUDY    42  38  85 N20G28    29.64F
6HR MIN TEMP:  42; 6HR MAX TEMP:  45; 6HR PCP: TRACE;

WINFIELD       LGT RAIN  44  40  85 N20G28    29.63R
6HR MIN TEMP:  44; 6HR MAX TEMP:  50; 6HR PCP:  0.02;

$$

KSZ007>012-019>026-033>040-048>060-102>105-261300-
NORTHEAST KANSAS

CITY           SKY/WX    TMP DP  RH WIND       PRES   REMARKS
CONCORDIA      CLOUDY    38  33  82 NW21G31   29.70R WCI  28
6HR MIN TEMP:  38; 6HR MAX TEMP:  42;

EMPORIA        CLOUDY    41  37  86 NW17G26   29.65R
6HR MIN TEMP:  41; 6HR MAX TEMP:  47; 6HR PCP: TRACE;

LAWRENCE       CLOUDY    43  40  89 NW13      29.64R
6HR MIN TEMP:  43; 6HR MAX TEMP:  49; 6HR PCP:  0.05;

MANHATTAN      CLOUDY    41  34  76 N9        29.69R
6HR MIN TEMP:  41; 6HR MAX TEMP:  45;

OLATHE IND     CLOUDY    42  41  96 NW14G21   29.61R FOG
6HR MIN TEMP:  42; 6HR MAX TEMP:  50; 6HR PCP:  0.08;

OLATHE EXE     CLOUDY    42  42 100 NW13G18   29.60R FOG
6HR MIN TEMP:  42; 6HR MAX TEMP:  49; 6HR PCP: TRACE;

SALINA         CLOUDY    43  35  73 N20       29.71R
6HR MIN TEMP:  43; 6HR MAX TEMP:  46;

TOPEKA BILLARD CLOUDY    42  38  85 NW15G23   29.65R
6HR MIN TEMP:  42; 6HR MAX TEMP:  48; 6HR PCP: TRACE;

TOPEKA FORBES  CLOUDY    43  37  79 NW15      29.64R
6HR MIN TEMP:  43; 6HR MAX TEMP:  49;

$$




USA.gov is the U.S. government's official web portal to all federal, state and local government web resources and services.